This is the latest recevied weather packets stored in our database for station/object WC4PEM-14. If no packets are shown the sender has not sent any weather packets the latest 1 day(s).
| Time | Temp. | Humidity | Pressure | Rain* | Wind** | Luminosity | Snow |
|---|---|---|---|---|---|---|---|
| 1778021885 | 28.33° C | 54% | 1014 hPa | 0 mm | 3.13 m/s, 93° | - | - |
| 1778021585 | 28.33° C | 53% | 1014.1 hPa | 0 mm | 3.13 m/s, 102° | - | - |
| 1778021491 | 28.89° C | 53% | 1014 hPa | 0 mm | 3.13 m/s, 97° | - | - |
| 1778021285 | 28.89° C | 53% | 1014 hPa | 0 mm | 3.13 m/s, 97° | - | - |
| 1778021172 | 28.89° C | 52% | 1014 hPa | 0 mm | 3.13 m/s, 101° | - | - |
| 1778020985 | 28.89° C | 52% | 1014 hPa | 0 mm | 3.13 m/s, 101° | - | - |
| 1778020892 | 28.89° C | 51% | 1014.1 hPa | 0 mm | 3.58 m/s, 103° | - | - |
| 1778020685 | 28.89° C | 51% | 1014.1 hPa | 0 mm | 3.58 m/s, 103° | - | - |
| 1778020518 | 29.44° C | 51% | 1014 hPa | 0 mm | 4.02 m/s, 99° | - | - |
| 1778020385 | 29.44° C | 51% | 1014 hPa | 0 mm | 4.02 m/s, 99° | - | - |
| 1778020249 | 29.44° C | 51% | 1014 hPa | 0 mm | 3.58 m/s, 106° | - | - |
| 1778020085 | 29.44° C | 51% | 1014 hPa | 0 mm | 3.58 m/s, 106° | - | - |
| 1778019993 | 29.44° C | 51% | 1013.8 hPa | 0 mm | 3.58 m/s, 105° | - | - |
| 1778019785 | 29.44° C | 51% | 1013.8 hPa | 0 mm | 3.58 m/s, 105° | - | - |
| 1778019485 | 29.44° C | 51% | 1014 hPa | 0 mm | 4.02 m/s, 93° | - | - |
| 1778019185 | 30° C | 50% | 1013.9 hPa | 0 mm | 4.02 m/s, 105° | - | - |
| 1778018885 | 30° C | 50% | 1013.9 hPa | 0 mm | 3.13 m/s, 93° | - | - |
| 1778018585 | 29.44° C | 50% | 1014 hPa | 0 mm | 2.68 m/s, 100° | - | - |
| 1778018405 | 29.44° C | 50% | 1013.9 hPa | 0 mm | 3.13 m/s, 100° | - | - |
| 1778018285 | 29.44° C | 50% | 1013.9 hPa | 0 mm | 3.13 m/s, 100° | - | - |
| 1778018132 | 30° C | 49% | 1013.9 hPa | 0 mm | 3.13 m/s, 97° | - | - |
| 1778017985 | 30° C | 49% | 1013.9 hPa | 0 mm | 3.13 m/s, 97° | - | - |
| 1778017809 | 30° C | 49% | 1013.9 hPa | 0 mm | 3.58 m/s, 100° | - | - |
| 1778017685 | 30° C | 49% | 1013.9 hPa | 0 mm | 3.58 m/s, 100° | - | - |
| 1778017385 | 30.56° C | 47% | 1013.9 hPa | 0 mm | 3.58 m/s, 102° | - | - |
* Rain latest hour (hover to see other rain measurements)
** Current wind speed in m/s (hover to see current wind gust speed)